DO5DHA-11 Weather Reports


Display with metric or nautical units.
time (UTC)temp
F
wind
direction
speed
MPH
gust
MPH
rain 1hr
in
rain 24hr
in
rain mn
in
humidity
%
barometer
mb
20260506184905 60 202 0.0 0.0 0.00 0.00 0.00 64 1005.7
20260506184405 60 202 0.0 0.0 0.00 0.00 0.00 64 1005.7
20260506183905 60 180 0.0 0.0 0.00 0.00 0.00 63 1005.5
20260506183405 60 180 0.0 0.0 0.00 0.00 0.00 63 1005.4
20260506182905 61 202 0.0 0.0 0.00 0.00 0.00 63 1005.5
20260506182405 61 202 0.0 0.0 0.00 0.00 0.00 63 1005.5
20260506181905 61 225 0.0 0.0 0.00 0.00 0.00 63 1005.5
20260506181405 61 225 0.0 0.0 0.00 0.00 0.00 62 1005.4
20260506180905 61 225 0.0 0.0 0.00 0.00 0.00 62 1005.4
20260506180405 61 225 0.0 0.0 0.00 0.00 0.00 62 1005.4
20260506175905 62 225 0.0 0.0 0.00 0.00 0.00 61 1005.4
20260506175405 62 202 0.0 0.0 0.00 0.00 0.00 61 1005.2
20260506174905 62 225 0.0 0.0 0.00 0.00 0.00 60 1005.2
20260506174405 62 225 0.0 0.0 0.00 0.00 0.00 60 1005.2
20260506173905 62 180 0.0 0.0 0.00 0.00 0.00 60 1005.0
20260506173405 62 202 0.0 0.0 0.00 0.00 0.00 59 1005.0
20260506172905 63 180 0.0 0.0 0.00 0.00 0.00 59 1004.9
20260506172405 63 202 0.0 0.0 0.00 0.00 0.00 59 1004.7
20260506171905 63 225 0.0 0.0 0.00 0.00 0.00 58 1004.9
20260506171405 63 180 0.0 0.0 0.00 0.00 0.00 58 1004.7
20260506170905 63 180 3.0 0.0 0.00 0.00 0.00 57 1004.7
20260506170405 63 180 0.0 0.0 0.00 0.00 0.00 57 1004.7
20260506165905 64 180 0.0 0.0 0.00 0.00 0.00 57 1004.7
20260506165405 64 180 0.0 0.0 0.00 0.00 0.00 57 1004.7
20260506164905 64 270 0.0 0.0 0.00 0.00 0.00 57 1004.7
20260506164405 64 225 0.0 0.0 0.00 0.00 0.00 57 1004.7
20260506163905 64 135 6.0 0.0 0.00 0.00 0.00 56 1004.7
20260506163405 64 202 0.0 0.0 0.00 0.00 0.00 56 1004.7
20260506162905 65 247 0.0 0.0 0.00 0.00 0.00 56 1004.7
20260506162405 65 270 0.0 0.0 0.00 0.00 0.00 55 1004.7
20260506161905 65 180 0.0 0.0 0.00 0.00 0.00 55 1004.7
20260506161405 66 202 0.0 0.0 0.00 0.00 0.00 55 1004.7
20260506160905 66 225 0.0 0.0 0.00 0.00 0.00 54 1004.7
20260506160405 66 270 0.0 0.0 0.00 0.00 0.00 53 1004.7
20260506155905 66 202 0.0 0.0 0.00 0.00 0.00 53 1004.7
20260506155405 67 180 0.0 0.0 0.00 0.00 0.00 52 1004.7
20260506154905 67 180 3.0 0.0 0.00 0.00 0.00 52 1004.7
20260506154405 67 225 0.0 0.0 0.00 0.00 0.00 52 1004.7
20260506153905 68 202 0.0 0.0 0.00 0.00 0.00 51 1004.5
20260506153405 68 180 0.0 0.0 0.00 0.00 0.00 51 1004.5
20260506152905 68 202 0.0 0.0 0.00 0.00 0.00 50 1004.5
20260506152405 69 225 3.0 0.0 0.00 0.00 0.00 50 1004.5
20260506151905 69 202 0.0 0.0 0.00 0.00 0.00 50 1004.5
20260506151405 69 225 3.0 0.0 0.00 0.00 0.00 50 1004.5
20260506150905 70 202 5.0 0.0 0.00 0.00 0.00 49 1004.5
20260506150405 70 225 0.0 0.0 0.00 0.00 0.00 49 1004.4
20260506145905 71 225 0.0 0.0 0.00 0.00 0.00 49 1004.4
20260506145405 71 225 0.0 0.0 0.00 0.00 0.00 49 1004.4
20260506144905 70 247 6.0 0.0 0.00 0.00 0.00 50 1004.2
20260506144405 70 225 0.0 0.0 0.00 0.00 0.00 49 1004.2
20260506143905 71 180 7.0 0.0 0.00 0.00 0.00 49 1004.4
20260506143405 70 157 0.0 0.0 0.00 0.00 0.00 49 1004.4
20260506142905 70 180 0.0 0.0 0.00 0.00 0.00 49 1004.2
20260506142405 70 202 0.0 0.0 0.00 0.00 0.00 49 1004.2
20260506141905 70 180 0.0 0.0 0.00 0.00 0.00 50 1004.2
20260506141405 70 225 0.0 0.0 0.00 0.00 0.00 51 1004.4
20260506140905 70 202 0.0 0.0 0.00 0.00 0.00 51 1004.4
20260506140405 69 270 0.0 0.0 0.00 0.00 0.00 52 1004.2
20260506135905 70 225 0.0 0.0 0.00 0.00 0.00 52 1004.2
20260506135405 69 180 0.0 0.0 0.00 0.00 0.00 52 1004.4
20260506134905 69 225 0.0 0.0 0.00 0.00 0.00 52 1004.2
20260506134405 69 225 0.0 0.0 0.00 0.00 0.00 54 1004.2
20260506133905 68 180 0.0 0.0 0.00 0.00 0.00 54 1004.4
20260506133405 68 180 0.0 0.0 0.00 0.00 0.00 54 1004.5
20260506132905 68 247 0.0 0.0 0.00 0.00 0.00 55 1004.4
20260506132405 67 180 4.0 0.0 0.00 0.00 0.00 55 1004.2
20260506131905 67 225 6.0 0.0 0.00 0.00 0.00 55 1004.2
20260506131405 67 180 0.0 0.0 0.00 0.00 0.00 56 1004.5
20260506130905 66 180 0.0 0.0 0.00 0.00 0.00 56 1004.5
20260506130405 66 225 5.0 0.0 0.00 0.00 0.00 57 1004.7
20260506125905 66 225 0.0 0.0 0.00 0.00 0.00 57 1004.7
20260506125405 66 180 0.0 0.0 0.00 0.00 0.00 57 1004.5
20260506124905 66 247 0.0 0.0 0.00 0.00 0.00 58 1004.5
20260506124405 66 225 3.0 0.0 0.00 0.00 0.00 58 1004.7
20260506123905 66 225 0.0 0.0 0.00 0.00 0.00 59 1004.5
20260506123405 66 247 0.0 0.0 0.00 0.00 0.00 58 1004.7
20260506122905 66 247 5.0 0.0 0.00 0.00 0.00 58 1004.7
20260506122405 66 180 2.0 0.0 0.00 0.00 0.00 58 1004.7
20260506121905 67 202 4.0 0.0 0.00 0.00 0.00 58 1004.5
20260506121405 67 157 0.0 0.0 0.00 0.00 0.00 58 1004.7
20260506120905 67 225 0.0 0.0 0.00 0.00 0.00 58 1004.7
20260506120405 67 202 0.0 0.0 0.00 0.00 0.00 58 1004.7
20260506115905 67 225 0.0 0.0 0.00 0.00 0.00 58 1004.7
20260506115405 67 225 6.0 0.0 0.00 0.00 0.00 59 1004.7
20260506114905 67 180 0.0 0.0 0.00 0.00 0.00 59 1004.7
20260506114405 67 202 0.0 0.0 0.00 0.00 0.00 59 1004.7
20260506113905 66 180 0.0 0.0 0.00 0.00 0.00 61 1004.9
20260506113405 66 180 3.0 0.0 0.00 0.00 0.00 61 1004.9
20260506112905 66 180 0.0 0.0 0.00 0.00 0.00 61 1005.0
20260506112405 65 225 4.0 0.0 0.00 0.00 0.00 62 1004.7
20260506111905 65 225 6.0 0.0 0.00 0.00 0.00 62 1004.9
20260506111405 65 202 0.0 0.0 0.00 0.00 0.00 63 1005.0
20260506110905 64 202 4.0 0.0 0.00 0.00 0.00 64 1005.0
20260506110405 64 180 0.0 0.0 0.00 0.00 0.00 64 1005.0
20260506105905 64 157 0.0 0.0 0.00 0.00 0.00 65 1005.0
20260506105405 63 180 0.0 0.0 0.00 0.00 0.00 66 1005.0
20260506104905 63 225 0.0 0.0 0.00 0.00 0.00 66 1005.0
20260506104405 62 202 0.0 0.0 0.00 0.00 0.00 67 1005.2
20260506103905 62 180 0.0 0.0 0.00 0.00 0.00 66 1005.2
20260506103405 62 180 0.0 0.0 0.00 0.00 0.00 68 1004.9
20260506102905 62 225 0.0 0.0 0.00 0.00 0.00 68 1004.7
20260506102405 62 180 0.0 0.0 0.00 0.00 0.00 68 1005.0
20260506101905 62 180 0.0 0.0 0.00 0.00 0.00 68 1005.0
20260506101405 62 180 0.0 0.0 0.00 0.00 0.00 69 1005.0
20260506100905 62 202 3.0 0.0 0.00 0.00 0.00 71 1005.0
20260506100405 61 225 5.0 0.0 0.00 0.00 0.00 71 1005.0
20260506095905 60 180 0.0 0.0 0.00 0.00 0.00 71 1005.2
20260506095405 59 180 0.0 0.0 0.00 0.00 0.00 72 1005.2
20260506094905 59 225 0.0 0.0 0.00 0.00 0.00 72 1005.2
20260506094405 59 157 0.0 0.0 0.00 0.00 0.00 72 1005.2
20260506093905 58 135 0.0 0.0 0.00 0.00 0.00 72 1005.2
20260506093405 58 202 0.0 0.0 0.00 0.00 0.00 72 1005.2
20260506092905 58 202 0.0 0.0 0.00 0.00 0.00 73 1005.2
20260506092405 58 225 0.0 0.0 0.00 0.00 0.00 73 1005.2
20260506091905 58 202 0.0 0.0 0.00 0.00 0.00 73 1005.0
20260506091405 58 202 0.0 0.0 0.00 0.00 0.00 74 1005.2
20260506090905 58 180 0.0 0.0 0.00 0.00 0.00 74 1005.0
20260506090405 58 202 0.0 0.0 0.00 0.00 0.00 74 1005.2
20260506085905 58 225 0.0 0.0 0.00 0.00 0.00 74 1005.0
20260506085405 58 180 0.0 0.0 0.00 0.00 0.00 73 1005.0
20260506084905 58 180 0.0 0.0 0.00 0.00 0.00 73 1005.0
20260506084405 58 180 0.0 0.0 0.00 0.00 0.00 73 1005.2
20260506083905 58 180 0.0 0.0 0.00 0.00 0.00 74 1004.9
20260506083405 58 247 0.0 0.0 0.00 0.00 0.00 74 1004.9
20260506082905 58 180 0.0 0.0 0.00 0.00 0.00 74 1004.7
20260506082405 58 202 0.0 0.0 0.00 0.00 0.00 74 1004.7
20260506081905 58 180 0.0 0.0 0.00 0.00 0.00 74 1004.7
20260506081405 58 180 0.0 0.0 0.00 0.00 0.00 74 1004.7
20260506080905 57 202 0.0 0.0 0.00 0.00 0.00 75 1004.5
20260506080405 57 225 2.0 0.0 0.00 0.00 0.00 75 1004.5
20260506073405 55 157 0.0 0.0 0.00 0.00 0.00 77 1005.0
20260506072905 55 202 0.0 0.0 0.00 0.00 0.00 77 1005.0
20260506072405 55 202 0.0 0.0 0.00 0.00 0.00 77 1005.0
20260506071905 55 202 0.0 0.0 0.00 0.00 0.00 77 1005.0
20260506071405 55 202 0.0 0.0 0.00 0.00 0.00 77 1005.0
20260506070905 55 180 0.0 0.0 0.00 0.00 0.00 78 1005.0
20260506070405 55 157 0.0 0.0 0.00 0.00 0.00 78 1005.0
20260506062405 56 202 0.0 0.0 0.00 0.00 0.00 80 1004.5
20260506061905 56 180 0.0 0.0 0.00 0.00 0.00 80 1004.7
20260506061405 55 180 8.0 0.0 0.00 0.00 0.00 80 1004.7
20260506060905 55 180 0.0 0.0 0.00 0.00 0.00 81 1004.9
20260506060405 55 180 9.0 0.0 0.00 0.00 0.00 81 1004.7
20260506051405 53 180 0.0 0.0 0.00 0.00 0.00 82 1004.7
20260506050905 53 180 0.0 0.0 0.00 0.00 0.00 82 1005.0
20260506050405 53 180 0.0 0.0 0.00 0.00 0.00 82 1005.0
20260506044905 53 180 0.0 0.0 0.00 0.00 0.00 82 1004.9
20260506044405 53 180 0.0 0.0 0.00 0.00 0.00 82 1004.7
20260506043905 53 180 0.0 0.0 0.00 0.00 0.00 82 1004.7
20260506043405 53 180 0.0 0.0 0.00 0.00 0.00 82 1004.7
20260506042905 53 180 0.0 0.0 0.00 0.00 0.00 82 1004.7
20260506042405 53 180 0.0 0.0 0.00 0.00 0.00 82 1004.7
20260506041905 53 180 0.0 0.0 0.00 0.00 0.00 82 1004.7
20260506041405 53 180 0.0 0.0 0.00 0.00 0.00 82 1004.7
20260506040905 53 157 0.0 0.0 0.00 0.00 0.00 82 1004.7
20260506040405 53 157 0.0 0.0 0.00 0.00 0.00 82 1004.9
20260506035905 53 157 0.0 0.0 0.00 0.00 0.00 82 1005.0
20260506035405 54 157 0.0 0.0 0.00 0.00 0.00 82 1005.0
20260506034905 54 157 0.0 0.0 0.00 0.00 0.00 82 1005.0
20260506034405 54 157 0.0 0.0 0.00 0.00 0.00 82 1005.0
20260506033905 54 157 0.0 0.0 0.00 0.00 0.00 82 1005.0
20260506033405 54 157 0.0 0.0 0.00 0.00 0.00 82 1005.0
20260506032905 54 157 0.0 0.0 0.00 0.00 0.00 82 1005.0
20260506032405 54 157 0.0 0.0 0.00 0.00 0.00 82 1005.0
20260506031905 54 157 0.0 0.0 0.00 0.00 0.00 82 1005.0
20260506031405 54 157 0.0 0.0 0.00 0.00 0.00 82 1005.2
20260506030905 54 157 0.0 0.0 0.00 0.00 0.00 82 1005.2
20260506030405 54 157 0.0 0.0 0.00 0.00 0.00 82 1005.5
20260506025905 54 157 0.0 0.0 0.00 0.00 0.00 82 1005.5
20260506025405 54 157 0.0 0.0 0.00 0.00 0.00 82 1005.5
20260506024905 54 157 0.0 0.0 0.00 0.00 0.00 82 1005.5
20260506024405 54 157 0.0 0.0 0.00 0.00 0.00 82 1005.5
20260506023905 54 157 0.0 0.0 0.00 0.00 0.00 82 1005.4
20260506023405 54 157 0.0 0.0 0.00 0.00 0.00 82 1005.5
20260506022905 54 157 0.0 0.0 0.00 0.00 0.00 82 1005.5
20260506022405 54 157 0.0 0.0 0.00 0.00 0.00 82 1005.5
20260506021905 54 157 0.0 0.0 0.00 0.00 0.00 82 1005.4
20260506021405 54 157 0.0 0.0 0.00 0.00 0.00 82 1005.4
20260506020905 54 157 0.0 0.0 0.00 0.00 0.00 82 1005.4
20260506020405 54 157 0.0 0.0 0.00 0.00 0.00 82 1005.4
20260506015905 55 157 0.0 0.0 0.00 0.00 0.00 82 1005.2
20260506015405 55 157 0.0 0.0 0.00 0.00 0.00 82 1005.2
20260506014905 55 157 0.0 0.0 0.00 0.00 0.00 82 1005.2
20260506014405 55 157 0.0 0.0 0.00 0.00 0.00 82 1005.2
20260506013905 55 157 0.0 0.0 0.00 0.00 0.00 82 1005.2
20260506013405 55 157 0.0 0.0 0.00 0.00 0.00 82 1005.4
20260506012905 55 157 0.0 0.0 0.00 0.00 0.00 82 1005.5
20260506012405 55 157 0.0 0.0 0.00 0.00 0.00 81 1005.5
20260506011905 55 157 0.0 0.0 0.00 0.00 0.00 81 1005.5
20260506011405 55 157 0.0 0.0 0.00 0.00 0.00 81 1005.5
20260506010905 55 157 0.0 0.0 0.00 0.00 0.00 81 1005.5
20260506010405 55 157 0.0 0.0 0.00 0.00 0.00 81 1005.7
20260506005905 55 157 0.0 0.0 0.00 0.00 0.00 81 1005.5
20260506005405 55 157 0.0 0.0 0.00 0.00 0.00 81 1005.5
20260506004905 56 157 0.0 0.0 0.00 0.00 0.00 81 1005.7
20260506004405 56 157 0.0 0.0 0.00 0.00 0.00 81 1005.7
20260506003905 56 157 0.0 0.0 0.00 0.00 0.00 81 1005.7
20260506003405 56 157 0.0 0.0 0.00 0.00 0.00 81 1005.9
20260506002905 56 157 0.0 0.0 0.00 0.00 0.00 81 1006.0
20260506002405 56 157 0.0 0.0 0.00 0.00 0.00 81 1006.0
20260506001905 56 157 0.0 0.0 0.00 0.00 0.00 80 1006.0
20260506001405 56 157 0.0 0.0 0.00 0.00 0.00 81 1006.0
20260506000905 56 202 0.0 0.0 0.00 0.00 0.00 81 1006.0
20260506000405 56 180 0.0 0.0 0.00 0.00 0.00 81 1006.0
20260505235905 57 180 0.0 0.0 0.00 0.00 0.00 81 1006.0
20260505235405 57 180 0.0 0.0 0.00 0.00 0.00 81 1006.0
20260505234905 57 180 0.0 0.0 0.00 0.00 0.00 80 1006.0
20260505234405 57 180 0.0 0.0 0.00 0.00 0.00 80 1006.0
20260505233905 57 180 0.0 0.0 0.00 0.00 0.00 80 1006.0
20260505233405 57 180 0.0 0.0 0.00 0.00 0.00 80 1006.0
20260505232905 57 180 0.0 0.0 0.00 0.00 0.00 80 1006.2
20260505232405 57 180 0.0 0.0 0.00 0.00 0.00 80 1006.2
20260505231905 57 180 0.0 0.0 0.00 0.00 0.00 80 1006.4
20260505231405 57 180 0.0 0.0 0.00 0.00 0.00 80 1006.4
20260505230905 57 180 0.0 0.0 0.00 0.00 0.00 80 1006.5
20260505230405 57 180 0.0 0.0 0.00 0.00 0.00 80 1006.4
20260505225905 57 180 0.0 0.0 0.00 0.00 0.00 80 1006.4
20260505225405 57 180 0.0 0.0 0.00 0.00 0.00 81 1006.4
20260505224905 57 180 0.0 0.0 0.00 0.00 0.00 81 1006.4
20260505224405 57 180 0.0 0.0 0.00 0.00 0.00 81 1006.4
20260505223905 57 202 0.0 0.0 0.00 0.00 0.00 80 1006.4
20260505223405 57 202 0.0 0.0 0.00 0.00 0.00 80 1006.4
20260505222905 57 180 0.0 0.0 0.00 0.00 0.00 80 1006.4
20260505222405 57 180 0.0 0.0 0.00 0.00 0.00 80 1006.2
20260505221905 57 202 0.0 0.0 0.00 0.00 0.00 80 1006.2
20260505221405 57 180 7.0 0.0 0.00 0.00 0.00 80 1006.2
20260505220905 57 180 0.0 0.0 0.00 0.00 0.00 80 1006.0
20260505220405 57 180 0.0 0.0 0.00 0.00 0.00 80 1006.0
20260505215905 57 180 0.0 0.0 0.00 0.00 0.00 80 1006.0
20260505215405 57 180 0.0 0.0 0.00 0.00 0.00 80 1006.4
20260505214905 57 157 0.0 0.0 0.00 0.00 0.00 80 1006.4
20260505214405 57 180 0.0 0.0 0.00 0.00 0.00 80 1006.2
20260505213905 57 180 0.0 0.0 0.00 0.00 0.00 80 1006.2
20260505213405 58 202 0.0 0.0 0.00 0.00 0.00 80 1006.2
20260505212905 58 180 0.0 0.0 0.00 0.00 0.00 80 1006.2
20260505212405 58 180 0.0 0.0 0.00 0.00 0.00 80 1006.2
20260505211905 58 180 0.0 0.0 0.00 0.00 0.00 80 1006.0
20260505211405 58 202 0.0 0.0 0.00 0.00 0.00 80 1006.0
20260505210905 58 202 0.0 0.0 0.00 0.00 0.00 80 1006.0
20260505210405 58 180 0.0 0.0 0.00 0.00 0.00 80 1006.4
20260505205905 58 180 0.0 0.0 0.00 0.00 0.00 80 1006.4
20260505205405 58 180 0.0 0.0 0.00 0.00 0.00 80 1006.4
20260505204905 58 202 0.0 0.0 0.00 0.00 0.00 80 1006.4
20260505204405 59 202 0.0 0.0 0.00 0.00 0.00 80 1006.4
20260505203905 59 202 0.0 0.0 0.00 0.00 0.00 80 1006.2
20260505203405 59 202 0.0 0.0 0.00 0.00 0.00 80 1006.2
20260505202905 59 202 0.0 0.0 0.00 0.00 0.00 80 1006.2
20260505202405 59 202 0.0 0.0 0.00 0.00 0.00 80 1006.2
20260505201905 59 202 0.0 0.0 0.00 0.00 0.00 80 1006.2
20260505201405 59 202 0.0 0.0 0.00 0.00 0.00 80 1006.2
20260505200905 59 202 0.0 0.0 0.00 0.00 0.00 79 1006.2
20260505200405 59 202 0.0 0.0 0.00 0.00 0.00 79 1006.0
20260505195905 59 202 0.0 0.0 0.00 0.00 0.00 79 1006.2
20260505195405 59 202 0.0 0.0 0.00 0.00 0.00 79 1006.0
20260505194905 59 202 0.0 0.0 0.00 0.00 0.00 79 1006.0
20260505194405 59 202 0.0 0.0 0.00 0.00 0.00 78 1006.0
20260505193905 59 202 0.0 0.0 0.00 0.00 0.00 78 1005.9
20260505193405 59 202 0.0 0.0 0.00 0.00 0.00 78 1005.7
20260505192905 59 202 0.0 0.0 0.00 0.00 0.00 78 1005.7
20260505192405 60 202 0.0 0.0 0.00 0.00 0.00 78 1006.0
20260505191905 60 202 0.0 0.0 0.00 0.00 0.00 78 1006.0
20260505191405 60 202 0.0 0.0 0.00 0.00 0.00 77 1005.9
20260505190905 60 202 0.0 0.0 0.00 0.00 0.00 76 1005.9
20260505190405 60 202 0.0 0.0 0.00 0.00 0.00 76 1005.9
20260505185905 60 202 0.0 0.0 0.00 0.00 0.00 76 1005.7
20260505185405 60 202 0.0 0.0 0.00 0.00 0.00 76 1005.7